Location: *
(46.3500°N, 10.9000°E)
Time: 10:47:35
(UTC+00:00)

Cosmos 1408 - Pass Details

Date: 09 April 2020
Orbit: 471 x 494 km, 82.6° (Epoch: 25 May)

Event Time Altitude Azimuth Distance (km) Brightness Sun altitude
Rises 20:42:18 0° 348° (NNW) 2,564 7.1 -25.6°
Reaches altitude 10° 20:44:25 10° 346° (NNW) 1,682 6.1 -25.8°
Enters shadow 20:46:55 40° 331° (NNW) 737 3.9 -26.1°
